Weather History for KHUM - November, 2013

Change the Weather History Date:

Monday, November 4, 2013

  Actual Average Record
Temperature  
Mean Temperature 65 °F -  
Max Temperature 78 °F 73 °F 89 °F (1946)
Min Temperature 52 °F 51 °F 33 °F (1966)
Growing Degree Days 15 (Base 50)    
Moisture  
Dew Point 56 °F    
Average Humidity 74    
Maximum Humidity 85    
Minimum Humidity 36    
Precipitation  
Precipitation 0.00 in - - ()
Sea Level Pressure  
Sea Level Pressure 30.15 in    
Wind  
Wind Speed 8 mph (ENE)    
Max Wind Speed 17 mph    
Max Gust Speed 21 mph    
Visibility 8 miles    
Events Rain    
Averages and records for this station are not official NWS values.
T = Trace of Precipitation, MM = Missing Value Source: NWS Daily Summary

Daily Weather History Graph

Daily Weather History Graph

Search for Another Location

Airport or City:

Trip Planner

Search our weather history database for the weather conditions in past years. The results will help you decide how hot, cold, wet, or windy it might be!

Date:

Astronomy

Nov. 04, 2013 Rise Set
Actual Time 6:18 AM CST 5:13 PM CST
Civil Twilight 5:53 AM CST 5:38 PM CST
Nautical Twilight 5:25 AM CST 6:06 PM CST
Astronomical Twilight 4:57 AM CST 6:34 PM CST
Moon 7:24 AM CST (11/4) 6:23 PM CST (11/4)
Length of Visible Light 11h 44m
Length of Day
10h 55m
New Moon, 2% of the Moon is Illuminated
Nov 4
New Moon
Nov 9
First Quarter
Nov 17
Full
Nov 25
Last Quarter
Dec 2
New

Hourly Weather History & Observations

Time (CST) Temp. Dew Point Humidity Pressure Visibility Wind Dir Wind Speed Gust Speed Precip Events Conditions
12:15 AM 52.0 °F 46.9 °F 83% 30.16 in 10.0 mi NE 4.6 mph - N/A   Scattered Clouds
12:35 AM 54.0 °F 47.3 °F 78% 30.15 in 10.0 mi NE 5.8 mph - N/A   Scattered Clouds
12:55 AM 54.5 °F 48.0 °F 79% 30.15 in 10.0 mi NNE 5.8 mph - N/A   Mostly Cloudy
1:15 AM 55.9 °F 48.2 °F 75% 30.15 in 10.0 mi NE 5.8 mph - N/A   Overcast
1:35 AM 55.4 °F 49.1 °F 79% 30.14 in 10.0 mi NE 5.8 mph - N/A   Overcast
1:55 AM 56.3 °F 49.6 °F 78% 30.13 in 10.0 mi NE 5.8 mph - N/A   Overcast
2:15 AM 56.3 °F 50.2 °F 80% 30.13 in 10.0 mi NE 4.6 mph - N/A   Overcast
2:35 AM 56.1 °F 50.2 °F 80% 30.13 in 10.0 mi NE 5.8 mph - N/A   Overcast
2:55 AM 57.0 °F 50.9 °F 80% 30.13 in 7.0 mi NE 6.9 mph - N/A   Overcast
3:15 AM 58.3 °F 51.4 °F 78% 30.14 in 10.0 mi NE 6.9 mph - N/A   Overcast
3:35 AM 59.0 °F 51.8 °F 77% 30.14 in 10.0 mi NE 4.6 mph - N/A   Overcast
3:55 AM 59.0 °F 52.0 °F 78% 30.14 in 10.0 mi NE 5.8 mph - N/A   Overcast
4:15 AM 59.5 °F 52.0 °F 76% 30.14 in 10.0 mi NE 4.6 mph - N/A   Overcast
4:35 AM 59.4 °F 52.2 °F 77% 30.14 in 10.0 mi NE 5.8 mph - N/A   Overcast
4:55 AM 59.4 °F 52.7 °F 79% 30.14 in 7.0 mi NE 5.8 mph - N/A   Overcast
5:50 AM 60.8 °F 53.6 °F 77% 30.16 in 7.0 mi NE 5.8 mph - N/A   Overcast
7:50 AM 62.6 °F 53.6 °F 72% 30.20 in 7.0 mi NE 5.8 mph - N/A   Overcast
8:50 AM 68.0 °F 53.6 °F 60% 30.21 in 7.0 mi NE 8.1 mph - N/A   Scattered Clouds
9:50 AM 73.4 °F 53.6 °F 50% 30.20 in 7.0 mi NE 16.1 mph - N/A   Scattered Clouds
10:50 AM 77.0 °F 51.8 °F 41% 30.20 in 7.0 mi ESE 17.3 mph - N/A   Scattered Clouds
11:48 AM 77.0 °F 48.2 °F 36% 30.18 in 7.0 mi ESE 12.7 mph 19.6 mph N/A   Partly Cloudy
1:48 PM 78.8 °F 50.0 °F 36% 30.13 in 7.0 mi East 16.1 mph - N/A   Scattered Clouds
2:50 PM 75.2 °F 53.6 °F 47% 30.15 in 7.0 mi NE 16.1 mph - N/A   Scattered Clouds
3:50 PM 73.4 °F 55.4 °F 53% 30.14 in 7.0 mi NE 13.8 mph - N/A   Scattered Clouds
4:51 PM 69.8 °F 57.2 °F 64% 30.14 in 7.0 mi NE 16.1 mph - N/A   Scattered Clouds
5:48 PM 68.0 °F 59.0 °F 73% 30.14 in 7.0 mi ENE 12.7 mph - N/A   Scattered Clouds
6:15 PM 67.3 °F 59.9 °F 77% 30.14 in 10.0 mi ENE 9.2 mph - N/A   Clear
6:35 PM 67.3 °F 60.1 °F 78% 30.14 in 10.0 mi East 11.5 mph - N/A   Clear
6:55 PM 67.5 °F 60.3 °F 78% 30.14 in 7.0 mi East 10.4 mph 18.4 mph N/A   Clear
7:15 PM 67.5 °F 60.4 °F 78% 30.14 in 10.0 mi East 9.2 mph 16.1 mph N/A   Clear
7:35 PM 67.6 °F 60.8 °F 79% 30.15 in 10.0 mi East 12.7 mph 18.4 mph N/A   Clear
7:55 PM 67.5 °F 60.8 °F 79% 30.15 in 7.0 mi East 16.1 mph - N/A   Mostly Cloudy
8:15 PM 67.3 °F 60.8 °F 80% 30.15 in 7.0 mi ENE 11.5 mph 20.7 mph N/A   Scattered Clouds
8:35 PM 67.3 °F 61.0 °F 80% 30.15 in 7.0 mi East 11.5 mph - N/A   Mostly Cloudy
8:55 PM 67.6 °F 61.2 °F 80% 30.16 in 10.0 mi ENE 9.2 mph - N/A   Overcast
9:15 PM 67.8 °F 61.2 °F 79% 30.16 in 7.0 mi ENE 8.1 mph - N/A   Overcast
9:35 PM 68.0 °F 61.0 °F 78% 30.16 in 7.0 mi ENE 8.1 mph - N/A   Overcast
9:55 PM 67.5 °F 61.2 °F 80% 30.16 in 7.0 mi ENE 6.9 mph - N/A   Overcast
10:15 PM 67.1 °F 61.9 °F 83% 30.15 in 7.0 mi ENE 4.6 mph - N/A Rain Light Rain
10:35 PM 66.7 °F 62.1 °F 85% 30.14 in 7.0 mi ENE 5.8 mph - N/A   Overcast
10:55 PM 66.7 °F 62.1 °F 85% 30.14 in 7.0 mi NE 5.8 mph - N/A   Overcast
11:15 PM 67.1 °F 62.1 °F 84% 30.14 in 7.0 mi NE 6.9 mph - N/A   Overcast
11:35 PM 67.5 °F 62.1 °F 83% 30.13 in 10.0 mi ENE 6.9 mph - N/A   Overcast
11:55 PM 67.1 °F 62.6 °F 85% 30.12 in 10.0 mi NE 5.8 mph - N/A   Light Drizzle